CARTOSAT-2E

Last updated on Thu Oct 30 2025 00:02:32 GMT+0000 (Coordinated Universal Time)

1 42767U 17036C 25302.52047094 .00007131 00000+0 34230-3 0 9992 2 42767 97.4616 0.6674 0004264 34.6841 325.4671 15.19161833463128

Satellite not in orbit